Simultaneous Nadir Overpasses (SNOs) Predictions

Prediction of SNOs between AQUA and NOAA-19 Satellite Orbit:

Table of predicted SNOs for the next 14.0 days since TLE Epoch: 3/9/2013
Index Date (AQUA) Time (AQUA) Lat,Lon (AQUA) SZA (AQUA ) Date (NOAA-19) Time (NOAA-19) Lat,Lon (NOAA-19) SZA (NOAA-19 ) Distance(km) Time Diff (sec)
1 03/09/2013 23:01:11 -48.64, 29.24 126.37 03/09/2013 23:00:27 -48.53, 28.80 126.57 35.02 44
2 03/09/2013 23:49:58 46.11,-162.15 51.34 03/09/2013 23:50:43 45.97,-162.89 51.10 59.41 45
3 03/12/2013 03:45:21 -48.16, -41.64 127.62 03/12/2013 03:44:45 -48.09, -42.11 127.79 36.01 36
4 03/12/2013 04:34:16 46.11, 126.78 50.52 03/12/2013 04:35:08 45.95, 126.02 50.27 61.15 52
5 03/14/2013 08:29:32 -47.76,-112.55 128.80 03/14/2013 08:29:03 -47.67,-113.02 129.00 37.19 29
6 03/14/2013 09:18:33 46.08, 55.73 49.67 03/14/2013 09:19:33 45.95, 54.93 49.44 62.94 60
7 03/16/2013 13:13:41 -47.27, 176.58 130.06 03/16/2013 13:13:20 -47.20, 176.08 130.25 38.44 21
8 03/16/2013 14:02:50 46.06, -15.34 48.84 03/16/2013 14:03:57 45.88, -16.14 48.57 64.84 67
9 03/18/2013 17:32:05 46.04, 129.52 127.46 03/18/2013 17:31:00 45.82, 130.57 127.27 85.26 65
10 03/18/2013 17:57:50 -46.80, 105.69 131.30 03/18/2013 17:57:37 -46.73, 105.18 131.48 39.83 13
11 03/20/2013 22:16:22 46.01, 58.44 126.63 03/20/2013 22:15:25 45.83, 59.49 126.41 83.06 57
12 03/20/2013 22:41:58 -46.30, 34.82 132.56 03/20/2013 22:41:53 -46.22, 34.29 132.75 41.20 5
13 03/23/2013 02:48:56 81.77, 65.76 86.64 03/23/2013 02:47:43 81.10, 66.31 86.42 74.75 73




NCC Satellite Simultaneous Nadir Overpasses (SNOs) Prediction Service
